CAPE
0 0 0 0 0 0 5 6 8 2 0 0 2 0 10 11 0 0 0 0 67 112 100 48 28 12 36 38 36 5 6 4 0 0 0 0 0 0
0 0 0 0 0 0 5 5 11 8 2 0 0 0 0 30 0 0 0 0 49 60 76 38 33 7 24 35 17 2 1 2 0 0 0 0 0 0
0 0 0 0 0 0 4 4 9 11 7 3 0 0 3 1 0 0 0 1 43 98 68 18 27 16 23 19 3 1 0 0 0 0 0 0 0 0
0 0 0 0 0 0 8 12 10 9 11 5 1 2 4 0 0 0 0 35 99 147 77 32 20 19 12 4 0 0 0 0 0 0 0 0 0 0
0 0 0 0 0 0 13 2 12 6 2 2 1 19 5 0 0 0 0 140 120 127 66 39 18 15 3 0 0 0 0 0 0 0 0 0 0 0
0 0 0 0 0 2 17 14 16 32 16 10 2 11 1 0 0 2 1 94 97 109 52 34 24 11 0 0 0 0 0 0 0 0 0 0 0 0
0 0 0 1 13 22 22 20 14 13 10 4 23 20 1 0 2 0 16 43 76 64 18 32 35 15 0 0 0 0 0 0 0 0 0 0 0 0
1 0 0 0 0 15 16 15 20 30 16 3 2 16 0 0 2 0 2 52 93 32 0 24 14 7 0 0 0 0 0 0 0 0 0 0 0 0
0 0 0 0 0 1 0 1 10 9 8 3 2 1 4 0 0 0 4 26 22 1 0 1 1 1 1 0 0 0 0 0 0 0 0 0 0 0
0 0 0 0 0 3 1 9 2 1 0 2 0 13 12 3 6 12 9 15 1 1 0 1 1 1 0 0 0 0 0 0 0 0 0 0 0 0
0 0 7 0 0 10 10 8 4 2 1 3 33 22 19 13 0 0 1 0 1 1 0 0 0 1 0 0 0 0 0 0 0 0 0 0 0 0
5 3 0 0 0 12 14 12 5 2 9 3 18 2 10 8 1 0 0 0 1 1 0 0 0 0 1 1 0 0 0 0 0 0 0 0 0 0
6 1 0 0 2 18 26 6 9 9 2 3 55 13 7 5 1 2 0 0 0 0 0 0 0 0 0 0 1 0 0 0 0 0 0 0 0 0
3 0 0 0 7 17 3 7 11 5 2 3 55 24 6 0 0 7 1 0 0 0 0 0 0 0 0 0 0 0 0 0 0 0 0 0 0 0
12 7 1 5 18 1 2 6 7 1 3 3 37 19 1 0 1 19 5 0 0 0 0 0 0 0 0 0 0 1 0 0 0 0 0 0 0 0
1 0 12 8 3 2 2 1 2 1 2 4 4 18 19 8 6 22 9 0 0 0 0 0 0 0 0 0 0 0 0 0 0 0 0 0 0 0
2 0 0 0 0 1 1 1 2 2 2 3 23 22 35 17 7 25 4 0 0 0 0 0 0 0 0 0 0 0 0 0 0 0 0 0 0 0
0 0 0 0 3 4 3 2 1 1 2 4 34 20 4 5 10 13 2 0 0 0 0 0 0 0 0 0 0 0 0 0 0 0 0 0 0 0
0 0 0 0 2 4 4 3 2 2 2 3 3 20 5 8 3 20 1 0 0 0 0 0 0 0 0 0 0 0 0 0 0 0 0 0 0 0
0 0 0 0 2 3 4 3 2 2 2 4 1 34 8 39 26 8 1 0 0 0 1 0 0 0 0 0 0 0 0 0 0 0 0 0 0 0
0 0 0 0 0 3 4 2 2 2 3 3 3 26 12 40 10 0 0 0 0 0 1 0 0 0 0 0 0 0 0 0 0 0 0 0 0 0
0 0 0 0 0 7 3 3 3 2 2 3 5 27 59 2 0 0 0 0 0 0 0 0 0 0 0 0 0 0 0 0 0 0 0 0 0 0
0 0 0 0 0 5 2 4 3 2 2 3 4 2 31 0 0 0 0 0 0 0 0 0 0 0 0 0 0 0 0 0 0 0 0 0 0 0
CIN
-0 -0 -0 -0 -0 -0 -42 -12 -0 -0 -0 -0 -0 -2 -2 -4 -0 -0 -0 -0 -108 -43 -31 -17 -13 -25 -10 -4 -20 -5 -1 -0 -0 -0 -0 -0 -0 -0
-0 -0 -0 -0 -0 -0 -39 -2 -0 -0 -0 -0 -0 -0 -3 -1 -0 -0 -0 -0 -143 -79 -54 -18 -17 -22 -12 -5 -2 -5 -1 -0 -0 -0 -0 -0 -0 -0
-0 -0 -0 -0 -0 -8 -27 -2 -0 -0 -0 -0 -0 -0 -0 -0 -0 -0 -0 -0 -110 -83 -32 -20 -24 -24 -16 -6 -8 -2 -0 -0 -0 -0 -0 -0 -0 -0
-0 -0 -0 -0 -0 -9 -25 -0 -0 -0 -0 -0 -0 -0 -0 -0 -0 -0 -0 -39 -61 -58 -41 -19 -29 -32 -22 -13 -0 -0 -0 -0 -0 -0 -0 -0 -0 -0
-0 -0 -0 -0 -0 -9 -8 -1 -0 -0 -0 -0 -1 -0 -5 -0 -0 -0 -0 -4 -42 -60 -37 -21 -30 -34 -41 -0 -0 -0 -0 -0 -0 -0 -0 -0 -0 -0
-0 -0 -0 -0 -0 -12 -1 -0 -0 -0 -0 -1 -0 -0 -1 -0 -0 -0 -0 -2 -0 -23 -21 -29 -33 -38 -6 -0 -0 -0 -0 -0 -0 -0 -0 -0 -0 -0
-0 -0 -0 -15 -5 -2 -1 -0 -0 -0 -2 -13 -0 -0 -1 -0 -0 -0 -24 -4 -0 -6 -4 -12 -28 -36 -7 -0 -0 -0 -0 -0 -0 -0 -0 -0 -0 -0
-13 -21 -0 -0 -0 -1 -1 -0 -0 -0 -0 -12 -15 -0 -0 -7 -0 -0 -0 -3 -0 -4 -0 -2 -21 -26 -0 -0 -0 -0 -0 -0 -0 -0 -0 -0 -0 -0
-2 -0 -0 -0 -0 -3 -1 -0 -0 -0 -0 -0 -0 -10 -12 -0 -0 -0 -0 -22 -6 -0 -0 -0 -0 -20 -0 -0 -0 -0 -0 -0 -0 -0 -0 -0 -0 -0
-0 -0 -0 -0 -0 -1 -1 -0 -0 -0 -0 -0 -1 -11 -19 -11 -5 -0 -3 -13 -18 -0 -0 -1 -0 -0 -0 -0 -0 -0 -0 -0 -0 -0 -0 -0 -0 -0
-0 -0 -7 -0 -0 -0 -0 -0 -0 -0 -0 -23 -2 -11 -4 -4 -0 -0 -2 -0 -0 -0 -1 -0 -0 -0 -0 -0 -0 -0 -0 -0 -0 -0 -0 -0 -0 -0
-12 -11 -0 -0 -1 -0 -0 -0 -0 -0 -0 -12 -6 -14 -5 -1 -0 -0 -0 -0 -0 -0 -0 -0 -0 -0 -0 -0 -0 -0 -0 -0 -0 -0 -0 -0 -0 -0
-8 -3 -4 -0 -0 -0 -0 -0 -0 -0 -0 -0 -0 -25 -7 -2 -0 -1 -0 -0 -0 -0 -0 -0 -0 -0 -0 -0 -0 -0 -0 -0 -0 -0 -0 -0 -0 -0
-3 -4 -2 -1 -1 -0 -1 -0 -0 -0 -0 -1 -0 -5 -6 -0 -0 -4 -0 -0 -0 -0 -0 -0 -0 -0 -0 -0 -0 -0 -0 -0 -0 -0 -0 -0 -0 -0
-3 -2 -0 -10 -0 -1 -0 -0 -0 -0 -0 -0 -0 -3 -0 -0 -8 -0 -4 -0 -0 -0 -0 -0 -0 -0 -0 -0 -0 -0 -0 -0 -0 -0 -0 -0 -0 -0
-7 -0 -9 -4 -1 -0 -0 -0 -0 -0 -0 -0 -8 -10 -4 -3 -0 -0 -1 -0 -0 -0 -0 -0 -0 -0 -0 -0 -0 -0 -0 -0 -0 -0 -0 -0 -0 -0
-1 -0 -0 -0 -0 -0 -0 -0 -0 -0 -0 -0 -4 -10 -0 -0 -1 -0 -0 -0 -0 -0 -0 -0 -0 -0 -0 -0 -0 -0 -0 -0 -0 -0 -0 -0 -0 -0
-0 -0 -0 -0 -0 -0 -0 -0 -0 -0 -0 -0 -1 -9 -13 -0 -0 -0 -0 -0 -0 -0 -0 -0 -0 -0 -0 -0 -0 -0 -0 -0 -0 -0 -0 -0 -0 -0
-0 -0 -0 -0 -0 -0 -0 -0 -0 -0 -0 -0 -2 -7 -20 -6 -14 -0 -0 -0 -0 -0 -0 -0 -0 -0 -0 -0 -0 -0 -0 -0 -0 -0 -0 -0 -0 -0
-0 -0 -0 -0 -0 -0 -0 -0 -0 -0 -0 -0 -0 -0 -3 -0 -0 -1 -0 -0 -0 -0 -0 -0 -0 -0 -0 -0 -0 -0 -0 -0 -0 -0 -0 -0 -0 -0
-0 -0 -0 -0 -0 -0 -0 -0 -0 -0 -0 -0 -0 -0 -3 -2 -7 -6 -0 -0 -0 -0 -0 -0 -0 -0 -0 -0 -0 -0 -0 -0 -0 -0 -0 -0 -0 -0
-0 -0 -0 -0 -0 -0 -0 -0 -0 -0 -0 -0 -0 -1 -4 -6 -0 -0 -0 -0 -0 -0 -0 -0 -0 -0 -0 -0 -0 -0 -0 -0 -0 -0 -0 -0 -0 -0
-0 -0 -0 -0 -0 -2 -0 -0 -0 -0 -0 -0 -0 -0 -4 -0 -0 -0 -0 -0 -0 -0 -0 -0 -0 -0 -0 -0 -0 -0 -0 -0 -0 -0 -0 -0 -0 -0
Wind_Speed
29 28 25 25 23 25 24 25 22 48 50 47 46 44 45 45 47 41 43 46 55 42 36 35 33 29 28 23 16 11 7 6 3 3 6 9 12 16
27 26 24 27 24 24 26 31 20 21 51 46 45 46 50 46 44 43 44 46 53 43 36 37 34 30 28 24 17 13 8 5 2 2 5 9 12 15
26 26 24 24 26 24 23 28 19 18 39 46 43 42 47 48 43 44 39 46 49 43 35 37 35 32 26 24 18 14 9 5 1 2 4 8 12 16
27 24 25 26 23 24 22 19 24 16 33 43 40 42 48 42 42 43 38 45 44 43 36 37 36 32 26 24 18 15 10 7 3 1 4 8 12 15
25 23 24 25 26 25 21 19 20 16 31 37 38 37 37 39 41 41 40 44 43 41 38 37 37 32 27 23 19 15 11 9 6 4 4 8 11 15
24 21 23 24 21 23 28 37 40 40 35 35 35 38 36 37 40 41 41 40 41 39 39 39 37 33 28 24 20 16 14 11 10 7 5 7 11 15
25 22 29 30 17 20 39 32 33 31 28 29 31 33 38 42 45 41 40 38 39 39 39 40 39 36 31 25 22 18 15 12 11 9 6 7 10 14
28 27 39 42 34 37 37 35 30 29 24 30 33 36 38 42 42 41 37 40 41 40 39 40 39 36 32 28 22 18 15 13 13 10 5 6 9 13
32 40 42 40 38 38 35 34 30 30 27 29 32 33 36 39 38 44 43 43 39 39 39 40 38 35 32 28 22 19 16 16 15 12 6 5 8 11
32 40 41 40 38 35 34 33 30 28 29 27 33 34 34 37 34 41 43 40 35 37 37 40 39 35 31 29 23 21 17 19 18 15 7 5 7 10
28 35 36 38 35 35 35 36 32 30 26 26 26 39 32 37 38 39 42 42 41 41 41 38 37 34 32 30 26 21 18 21 21 17 10 6 7 9
28 34 37 36 36 34 34 34 34 28 28 24 33 34 33 32 35 42 45 47 43 41 44 41 39 35 33 31 27 24 22 22 23 18 12 7 8 9
28 35 35 35 35 35 33 32 31 33 31 28 31 35 32 33 37 43 44 45 45 43 43 38 42 38 32 30 27 26 24 24 24 20 14 10 10 8
28 33 34 34 34 33 32 31 33 30 28 28 30 34 36 37 39 44 41 43 42 39 42 40 43 39 33 31 30 26 27 24 20 16 14 15 14 8
32 33 34 33 32 31 31 30 30 29 30 32 38 39 38 37 36 43 39 39 38 37 43 43 44 38 33 32 27 26 26 30 22 17 16 12 9 6
32 32 32 31 30 30 30 27 28 27 30 34 35 29 34 36 38 41 43 42 42 41 41 44 43 40 37 32 28 29 29 27 22 21 16 14 10 6
32 30 30 29 29 31 28 26 27 24 26 26 30 32 37 36 38 42 44 43 44 42 42 39 37 37 37 33 31 30 32 29 20 17 16 13 12 7
29 28 29 29 29 28 26 26 26 26 24 24 32 36 38 41 41 43 41 43 43 41 41 39 34 33 31 31 30 32 32 27 19 18 16 12 9 9
28 28 28 27 28 27 25 25 27 24 23 26 32 39 40 35 42 46 42 44 43 40 40 38 36 35 36 40 32 30 24 25 18 18 15 17 8 4
28 28 28 28 28 26 24 23 25 24 24 23 30 42 39 34 43 45 44 44 42 40 40 40 39 39 36 30 29 28 21 17 16 15 15 16 11 8
29 28 28 28 28 26 24 22 23 23 25 25 29 36 46 43 42 44 42 42 41 40 41 42 40 30 25 22 26 28 22 18 16 14 12 11 9 11
30 29 28 28 27 26 24 24 22 23 24 25 26 35 43 41 42 42 42 40 43 40 42 37 31 28 29 32 27 24 22 17 13 12 13 13 9 5
29 29 29 28 26 25 25 24 24 24 24 25 25 33 36 42 38 38 42 41 43 40 38 35 33 31 32 27 23 22 20 16 14 12 15 17 10 14
Wind_Direction
328 329 327 326 324 323 322 324 308 278 283 281 267 255 245 243 242 245 242 241 227 222 219 223 223 221 227 228 221 218 199 152 119 44 23 24 5 9
329 328 325 324 323 323 322 326 309 286 276 278 265 253 241 238 240 243 242 239 224 218 215 219 218 218 222 224 218 220 204 175 141 37 29 7 6 16
329 327 323 324 325 325 322 327 312 304 265 273 262 248 238 234 237 239 240 231 222 214 211 214 214 215 215 219 218 216 205 206 198 55 22 4 5 11
330 329 326 327 324 325 323 319 325 307 265 263 251 240 226 229 235 232 239 223 217 213 209 211 211 211 210 216 213 213 208 216 239 323 6 1 0 12
331 329 327 327 327 328 324 311 277 308 262 252 243 232 225 229 232 231 230 218 217 211 209 209 208 206 207 209 209 211 215 228 245 275 345 353 4 17
333 330 329 328 325 329 329 281 283 302 276 236 232 225 226 230 226 225 231 207 207 207 209 209 206 206 206 209 212 213 220 229 243 262 310 347 359 11
334 332 328 328 318 291 285 278 282 274 268 232 222 220 227 224 220 219 213 205 204 205 206 207 206 208 210 209 216 214 219 228 238 256 294 345 1 11
336 335 316 311 330 282 283 280 274 275 266 235 237 225 227 220 218 217 214 201 202 206 203 205 205 208 210 213 212 212 219 227 238 252 288 344 357 17
337 320 304 310 288 289 284 283 279 280 270 262 237 229 223 219 221 219 215 201 207 200 200 203 204 208 211 214 208 212 217 229 237 248 279 336 1 32
337 313 297 300 291 287 282 283 277 270 274 266 228 223 228 220 223 215 204 202 202 203 202 204 205 209 210 215 211 215 220 230 236 245 269 314 356 51
338 320 298 294 287 286 287 287 281 273 268 263 237 208 224 222 225 208 201 200 202 204 204 204 205 207 212 215 218 216 221 230 234 244 262 299 341 59
338 316 293 293 289 286 284 286 287 274 272 266 225 222 219 222 216 212 204 204 202 204 205 206 204 206 213 219 219 222 226 230 233 242 258 288 319 38
337 290 292 288 287 286 285 279 277 277 268 251 225 224 229 224 216 211 207 204 204 209 205 206 205 207 215 215 219 223 224 227 232 240 255 276 302 70
336 283 288 285 286 288 287 276 284 280 261 253 237 226 221 221 218 208 210 209 212 213 208 210 209 209 212 213 217 221 225 229 233 239 252 265 282 349
287 286 284 284 283 286 286 282 285 276 257 250 226 222 224 217 213 206 209 209 211 212 209 210 211 211 213 215 214 217 218 227 233 237 248 263 291 353
287 287 285 286 283 288 292 279 286 275 260 246 227 231 217 212 209 205 206 205 207 208 208 210 211 211 214 216 216 218 223 227 227 235 243 258 283 341
290 287 289 289 292 298 291 286 285 273 266 235 221 217 208 209 205 203 205 203 205 204 205 207 208 212 216 215 221 221 221 229 223 226 239 252 273 313
291 285 286 288 291 292 285 281 283 275 257 242 218 213 210 208 204 204 205 203 203 204 205 205 201 203 209 221 223 221 223 228 225 225 237 248 271 297
286 286 285 283 288 287 285 278 277 268 259 239 222 209 209 208 205 206 205 202 204 205 205 204 203 207 211 216 224 224 217 222 218 224 234 251 266 294
282 281 281 283 283 282 283 281 276 267 255 248 226 208 211 212 203 204 204 203 204 204 204 206 210 213 214 215 220 222 220 189 190 210 230 251 273 291
278 275 278 282 287 283 287 284 280 269 257 251 241 220 207 208 206 205 206 204 204 205 205 209 212 214 211 213 219 218 222 221 212 202 213 239 258 279
274 271 277 281 280 280 283 284 276 272 259 253 248 219 209 209 205 204 205 204 205 206 209 210 208 208 213 219 215 211 214 218 216 219 235 251 254 266
270 269 277 281 271 274 283 282 277 270 260 251 246 224 219 208 207 207 206 205 205 207 207 207 208 212 216 215 208 202 208 194 200 208 236 263 276 291